DW4075 Weather Reports


Display with metric or nautical units.
time (UTC)temp
F
wind
direction
speed
MPH
gust
MPH
rain 1hr
in
rain 24hr
in
rain mn
in
humidity
%
barometer
mb
20260906224303 91 193 4.0 11.0 0.00 0.00 0.00 21 1021.0
20260906223802 92 180 5.0 11.0 0.00 0.00 0.00 19 1021.0
20260906223303 92 192 6.0 11.0 0.00 0.00 0.00 21 1021.1
20260906222802 91 278 1.0 9.0 0.00 0.00 0.00 22 1021.0
20260906222305 91 180 4.0 9.0 0.00 0.00 0.00 20 1021.1
20260906221803 91 171 4.0 9.0 0.00 0.00 0.00 20 1021.1
20260906221303 91 217 2.0 9.0 0.00 0.00 0.00 20 1021.3
20260906220803 91 217 2.0 7.0 0.00 0.00 0.00 20 1021.4
20260906220302 92 223 2.0 7.0 0.00 0.00 0.00 20 1021.3
20260906215802 92 230 5.0 7.0 0.00 0.00 0.00 20 1021.3
20260906215306 92 226 2.0 9.0 0.00 0.00 0.00 20 1021.4
20260906215032 92 234 4.0 9.0 0.00 0.00 0.00 20 1021.6
20260906214302 92 202 3.0 6.0 0.00 0.00 0.00 22 1021.7
20260906213802 91 227 2.0 6.0 0.00 0.00 0.00 21 1021.7
20260906213519 91 227 4.0 6.0 0.00 0.00 0.00 21 1022.1
20260906213030 91 207 2.0 9.0 0.00 0.00 0.00 21 1022.1
20260906212306 91 202 3.0 10.0 0.00 0.00 0.00 21 1022.1
20260906211802 92 144 6.0 10.0 0.00 0.00 0.00 21 1022.1
20260906211302 92 223 2.0 9.0 0.00 0.00 0.00 21 1022.2
20260906210802 92 213 4.0 9.0 0.00 0.00 0.00 22 1022.2
20260906210302 92 197 1.0 6.0 0.00 0.00 0.00 21 1022.4
20260906205803 92 309 1.0 7.0 0.00 0.00 0.00 22 1022.5
20260906205306 92 309 1.0 9.0 0.00 0.00 0.00 22 1022.7
20260906204802 91 261 5.0 9.0 0.00 0.00 0.00 23 1022.8
20260906204302 90 93 5.0 7.0 0.00 0.00 0.00 23 1022.9
20260906203802 90 102 0.0 4.0 0.00 0.00 0.00 25 1022.9
20260906203303 89 102 1.0 6.0 0.00 0.00 0.00 24 1023.2
20260906202802 89 102 4.0 7.0 0.00 0.00 0.00 22 1023.2
20260906202306 89 102 2.0 7.0 0.00 0.00 0.00 24 1023.2
20260906201803 88 118 1.0 5.0 0.00 0.00 0.00 24 1023.2
20260906201303 87 113 1.0 7.0 0.00 0.00 0.00 25 1023.4
20260906200802 86 116 2.0 7.0 0.00 0.00 0.00 25 1023.4
20260906200301 86 96 3.0 6.0 0.00 0.00 0.00 25 1023.5
20260906195801 85 96 1.0 5.0 0.00 0.00 0.00 25 1023.5
20260906195301 85 96 2.0 5.0 0.00 0.00 0.00 24 1023.8
20260906194802 85 96 3.0 9.0 0.00 0.00 0.00 25 1023.6
20260906194301 86 96 4.0 9.0 0.00 0.00 0.00 24 1023.6
20260906193802 86 97 2.0 7.0 0.00 0.00 0.00 24 1023.8
20260906193302 86 99 4.0 7.0 0.00 0.00 0.00 24 1023.8
20260906193029 87 103 2.0 5.0 0.00 0.00 0.00 24 1023.9
20260906192301 87 103 3.0 7.0 0.00 0.00 0.00 24 1023.9
20260906192025 87 104 3.0 7.0 0.00 0.00 0.00 25 1024.0
20260906191303 88 125 3.0 9.0 0.00 0.00 0.00 23 1024.1
20260906190802 87 85 3.0 9.0 0.00 0.00 0.00 24 1024.2
20260906190301 87 71 3.0 9.0 0.00 0.00 0.00 25 1024.2
20260906185802 86 65 4.0 9.0 0.00 0.00 0.00 25 1024.1
20260906185305 87 107 3.0 9.0 0.00 0.00 0.00 24 1024.2
20260906185024 87 85 2.0 10.0 0.00 0.00 0.00 25 1024.2
20260906184301 88 100 2.0 10.0 0.00 0.00 0.00 23 1024.5
20260906183802 87 80 7.0 10.0 0.00 0.00 0.00 25 1024.6
20260906183525 87 116 2.0 9.0 0.00 0.00 0.00 24 1024.7
20260906182801 86 130 2.0 9.0 0.00 0.00 0.00 26 1024.9
20260906182301 87 102 4.0 9.0 0.00 0.00 0.00 23 1024.9
20260906181802 87 61 4.0 11.0 0.00 0.00 0.00 25 1025.0
20260906181301 87 63 6.0 11.0 0.00 0.00 0.00 25 1025.2
20260906181022 87 54 2.0 11.0 0.00 0.00 0.00 26 1025.1
20260906180302 87 59 7.0 11.0 0.00 0.00 0.00 25 1025.2
20260906175802 87 82 5.0 9.0 0.00 0.00 0.00 25 1025.2
20260906175301 87 63 4.0 9.0 0.00 0.00 0.00 26 1025.3
20260906174802 87 59 4.0 9.0 0.00 0.00 0.00 26 1025.5
20260906174301 86 41 3.0 9.0 0.00 0.00 0.00 26 1025.3
20260906173801 86 48 3.0 7.0 0.00 0.00 0.00 27 1025.5
20260906173301 85 35 2.0 9.0 0.00 0.00 0.00 28 1025.6
20260906172802 85 25 5.0 9.0 0.00 0.00 0.00 27 1025.6
20260906172305 84 61 1.0 7.0 0.00 0.00 0.00 28 1025.6
20260906171801 83 62 3.0 9.0 0.00 0.00 0.00 28 1025.7
20260906171737 83 30 3.0 9.0 0.00 0.00 0.00 31 1025.7
20260906170802 82 21 5.0 10.0 0.00 0.00 0.00 30 1025.7
20260906170302 82 37 5.0 10.0 0.00 0.00 0.00 32 1025.8
20260906165802 81 61 6.0 9.0 0.00 0.00 0.00 31 1025.8
20260906165301 81 61 5.0 11.0 0.00 0.00 0.00 32 1025.8
20260906164802 81 47 5.0 11.0 0.00 0.00 0.00 32 1025.8
20260906164302 81 99 2.0 7.0 0.00 0.00 0.00 33 1025.9
20260906163802 82 106 3.0 7.0 0.00 0.00 0.00 34 1026.1
20260906163301 81 48 2.0 9.0 0.00 0.00 0.00 34 1026.1
20260906162803 79 49 4.0 9.0 0.00 0.00 0.00 36 1026.1
20260906162301 78 56 3.0 6.0 0.00 0.00 0.00 38 1026.2
20260906162238 77 56 2.0 6.0 0.00 0.00 0.00 40 1026.2
20260906161302 77 56 2.0 7.0 0.00 0.00 0.00 39 1026.1
20260906160802 77 56 3.0 7.0 0.00 0.00 0.00 38 1026.2
20260906160302 78 66 3.0 7.0 0.00 0.00 0.00 37 1026.1
20260906155802 78 54 4.0 7.0 0.00 0.00 0.00 39 1026.1
20260906155301 77 56 4.0 7.0 0.00 0.00 0.00 40 1026.1
20260906154802 76 27 2.0 9.0 0.00 0.00 0.00 40 1026.2
20260906154521 76 35 4.0 9.0 0.00 0.00 0.00 40 1026.2
20260906154028 75 38 5.0 7.0 0.00 0.00 0.00 41 1026.1
20260906153302 75 35 3.0 7.0 0.00 0.00 0.00 41 1026.2
20260906153023 75 23 4.0 7.0 0.00 0.00 0.00 41 1026.2
20260906152527 75 28 2.0 7.0 0.00 0.00 0.00 41 1025.9
20260906151802 74 28 4.0 7.0 0.00 0.00 0.00 43 1025.9
20260906151301 73 28 4.0 6.0 0.00 0.00 0.00 43 1025.9
20260906150802 72 23 2.0 5.0 0.00 0.00 0.00 45 1025.9
20260906150530 71 24 2.0 6.0 0.00 0.00 0.00 46 1026.1
20260906150021 71 23 3.0 6.0 0.00 0.00 0.00 46 1026.2
20260906145301 69 21 3.0 7.0 0.00 0.00 0.00 48 1026.1
20260906144801 68 17 4.0 7.0 0.00 0.00 0.00 50 1026.1
20260906144301 66 7 3.0 6.0 0.00 0.00 0.00 52 1026.1
20260906143801 64 345 2.0 7.0 0.00 0.00 0.00 55 1026.1
20260906143302 63 327 0.0 7.0 0.00 0.00 0.00 56 1025.9
20260906142802 62 324 2.0 6.0 0.00 0.00 0.00 58 1025.9
20260906142301 61 324 0.0 0.0 0.00 0.00 0.00 61 1025.9
20260906141801 61 324 0.0 0.0 0.00 0.00 0.00 62 1025.9
20260906141302 60 324 0.0 0.0 0.00 0.00 0.00 62 1025.9
20260906140801 60 324 0.0 0.0 0.00 0.00 0.00 62 1026.1
20260906140301 60 324 0.0 0.0 0.00 0.00 0.00 62 1025.9
20260906135803 60 324 0.0 0.0 0.00 0.00 0.00 63 1025.7
20260906135528 59 324 0.0 0.0 0.00 0.00 0.00 63 1025.7
20260906134802 59 324 0.0 0.0 0.00 0.00 0.00 64 1025.7
20260906134301 58 324 0.0 0.0 0.00 0.00 0.00 63 1025.5
20260906134024 58 324 0.0 0.0 0.00 0.00 0.00 62 1025.6
20260906133302 57 324 0.0 0.0 0.00 0.00 0.00 63 1025.6
20260906132801 57 324 0.0 0.0 0.00 0.00 0.00 62 1025.5
20260906132301 57 324 0.0 0.0 0.00 0.00 0.00 61 1025.3
20260906131802 57 324 0.0 0.0 0.00 0.00 0.00 61 1025.3
20260906131301 56 324 0.0 0.0 0.00 0.00 0.00 61 1025.5
20260906130801 56 324 0.0 0.0 0.00 0.00 0.00 61 1025.3
20260906130302 56 324 0.0 0.0 0.00 0.00 0.00 61 1025.3
20260906130020 56 324 0.0 0.0 0.00 0.00 0.00 61 1025.1
20260906125301 56 324 0.0 0.0 0.00 0.00 0.00 61 1025.1
20260906124801 56 324 0.0 0.0 0.00 0.00 0.00 61 1025.0
20260906124302 56 324 0.0 0.0 0.00 0.00 0.00 62 1024.9
20260906123802 56 324 0.0 0.0 0.00 0.00 0.00 61 1024.9
20260906123301 56 324 0.0 0.0 0.00 0.00 0.00 61 1024.9
20260906122801 56 324 0.0 0.0 0.00 0.00 0.00 62 1024.9
20260906122305 56 324 0.0 0.0 0.00 0.00 0.00 62 1025.0
20260906121801 57 324 0.0 0.0 0.00 0.00 0.00 63 1025.1
20260906121301 57 324 0.0 0.0 0.00 0.00 0.00 63 1025.0
20260906120802 57 324 0.0 0.0 0.00 0.00 0.00 63 1024.9
20260906120301 57 324 0.0 0.0 0.00 0.00 0.00 63 1024.7
20260906115803 56 324 0.0 0.0 0.00 0.00 0.00 64 1024.7
20260906115301 56 324 0.0 0.0 0.00 0.00 0.00 64 1024.7
20260906114801 56 324 0.0 0.0 0.00 0.00 0.00 64 1024.9
20260906114301 56 324 0.0 0.0 0.00 0.00 0.00 64 1024.9
20260906114025 56 324 0.0 0.0 0.00 0.00 0.00 64 1025.0
20260906113301 56 324 0.0 0.0 0.00 0.00 0.00 64 1024.9
20260906112801 56 324 0.0 0.0 0.00 0.00 0.00 64 1024.7
20260906112301 56 324 0.0 0.0 0.00 0.00 0.00 64 1024.9
20260906111801 56 324 0.0 0.0 0.00 0.00 0.00 63 1024.7
20260906111301 57 324 0.0 0.0 0.00 0.00 0.00 63 1024.7
20260906111251 57 324 0.0 0.0 0.00 0.00 0.00 62 1024.6
20260906110301 57 324 0.0 0.0 0.00 0.00 0.00 62 1024.7
20260906105801 57 324 0.0 0.0 0.00 0.00 0.00 62 1024.7
20260906105301 57 324 0.0 0.0 0.00 0.00 0.00 62 1024.7
20260906104801 57 324 0.0 0.0 0.00 0.00 0.00 62 1024.6
20260906104302 57 324 0.0 0.0 0.00 0.00 0.00 62 1024.7
20260906103802 57 324 0.0 0.0 0.00 0.00 0.00 62 1024.7
20260906103302 57 324 0.0 0.0 0.00 0.00 0.00 62 1024.6
20260906102802 58 324 0.0 0.0 0.00 0.00 0.00 62 1024.6
20260906102301 58 324 0.0 0.0 0.00 0.00 0.00 61 1024.6
20260906101801 58 324 0.0 0.0 0.00 0.00 0.00 61 1024.5
20260906101301 58 324 0.0 0.0 0.00 0.00 0.00 61 1024.5
20260906100801 59 324 0.0 1.0 0.00 0.00 0.00 60 1024.5
20260906100302 59 324 0.0 2.0 0.00 0.00 0.00 59 1024.5
20260906095800 59 324 0.0 2.0 0.00 0.00 0.00 59 1024.5
20260906095301 60 324 0.0 3.0 0.00 0.00 0.00 59 1024.4
20260906095018 60 324 0.0 3.0 0.00 0.00 0.00 58 1024.4
20260906094301 60 324 2.0 3.0 0.00 0.00 0.00 57 1024.5
20260906093801 61 324 2.0 3.0 0.00 0.00 0.00 57 1024.2
20260906093302 61 324 2.0 3.0 0.00 0.00 0.00 57 1024.4
20260906092802 61 324 2.0 3.0 0.00 0.00 0.00 57 1024.2
20260906092521 61 324 2.0 3.0 0.00 0.00 0.00 57 1024.2
20260906091801 61 324 2.0 3.0 0.00 0.00 0.00 56 1024.2
20260906091301 62 324 2.0 3.0 0.00 0.00 0.00 56 1024.4
20260906090801 62 324 0.0 1.0 0.00 0.00 0.00 56 1024.2
20260906090521 62 324 0.0 3.0 0.00 0.00 0.00 56 1024.2
20260906085801 62 324 0.0 4.0 0.00 0.00 0.00 56 1024.2
20260906085301 62 324 2.0 5.0 0.00 0.00 0.00 56 1024.2
20260906084801 62 324 2.0 5.0 0.00 0.00 0.00 55 1024.2
20260906084300 62 324 2.0 4.0 0.00 0.00 0.00 55 1024.2
20260906083801 63 324 0.0 0.0 0.00 0.00 0.00 55 1024.2
20260906083301 63 324 0.0 0.0 0.00 0.00 0.00 55 1024.4
20260906082801 63 324 0.0 0.0 0.00 0.00 0.00 54 1024.4
20260906082746 63 324 0.0 0.0 0.00 0.00 0.00 54 1024.4
20260906081801 63 324 0.0 0.0 0.00 0.00 0.00 54 1024.4
20260906081301 63 324 0.0 0.0 0.00 0.00 0.00 54 1024.2
20260906081023 63 324 0.0 0.0 0.00 0.00 0.00 53 1024.5
20260906080520 63 324 0.0 0.0 0.00 0.00 0.00 54 1024.4
20260906075801 63 324 0.0 0.0 0.00 0.00 0.00 54 1024.5
20260906075526 63 324 0.0 0.0 0.00 0.00 0.00 54 1024.4
20260906074801 63 324 0.0 0.0 0.00 0.00 0.00 54 1024.5
20260906074301 63 324 0.0 0.0 0.00 0.00 0.00 54 1024.5
20260906073801 63 324 0.0 0.0 0.00 0.00 0.00 54 1024.5
20260906073520 63 324 0.0 0.0 0.00 0.00 0.00 54 1024.5
20260906072801 63 324 0.0 0.0 0.00 0.00 0.00 53 1024.5
20260906072301 64 324 0.0 0.0 0.00 0.00 0.00 53 1024.6
20260906071801 64 324 0.0 0.0 0.00 0.00 0.00 53 1024.6
20260906071301 64 324 0.0 0.0 0.00 0.00 0.00 53 1024.5
20260906070800 64 324 0.0 0.0 0.00 0.00 0.00 53 1024.5
20260906070301 64 324 0.0 0.0 0.00 0.00 0.00 53 1024.6
20260906065801 64 324 0.0 0.0 0.00 0.00 0.00 52 1024.6
20260906065305 64 324 0.0 0.0 0.00 0.00 0.00 52 1024.5
20260906064800 64 324 0.0 0.0 0.00 0.00 0.00 52 1024.5
20260906064301 64 324 0.0 0.0 0.00 0.00 0.00 52 1024.6
20260906063802 64 324 0.0 0.0 0.00 0.00 0.00 52 1024.6
20260906063301 64 324 0.0 0.0 0.00 0.00 0.00 52 1024.6
20260906062800 64 324 0.0 0.0 0.00 0.00 0.00 51 1024.6
20260906062305 65 324 0.0 1.0 0.00 0.00 0.00 50 1024.5
20260906061801 65 324 0.0 2.0 0.00 0.00 0.00 50 1024.5
20260906061300 65 324 2.0 3.0 0.00 0.00 0.00 50 1024.6
20260906060801 65 324 2.0 3.0 0.00 0.00 0.00 50 1024.5
20260906060437 65 324 2.0 3.0 0.00 0.00 0.00 49 1024.6
20260906055801 66 324 0.0 3.0 0.00 0.00 0.00 50 1024.5
20260906055526 66 324 2.0 3.0 0.00 0.00 0.00 49 1024.5
20260906054800 66 324 0.0 4.0 0.00 0.00 0.00 49 1024.5
20260906054743 66 324 2.0 4.0 0.00 0.00 0.00 49 1024.2
20260906053800 66 324 0.0 0.0 0.00 0.00 0.00 48 1024.2
20260906053300 66 324 0.0 0.0 0.00 0.00 0.00 48 1024.2
20260906052801 66 324 0.0 0.0 0.00 0.00 0.00 48 1024.2
20260906052301 66 324 0.0 0.0 0.00 0.00 0.00 48 1024.2
20260906051800 66 324 0.0 0.0 0.00 0.00 0.00 47 1024.2
20260906051300 67 324 0.0 0.0 0.00 0.00 0.00 47 1024.1
20260906050800 67 324 0.0 0.0 0.00 0.00 0.00 47 1024.1
20260906050300 67 324 0.0 1.0 0.00 0.00 0.00 46 1024.0
20260906050022 67 324 0.0 2.0 0.00 0.00 0.00 46 1024.1
20260906045301 68 324 0.0 2.0 0.00 0.00 0.00 45 1024.1
20260906044801 68 324 0.0 2.0 0.00 0.00 0.00 45 1024.0
20260906044300 69 324 0.0 0.0 0.00 0.00 0.00 45 1024.0
20260906043801 69 324 0.0 0.0 0.00 0.00 0.00 44 1024.0
20260906043300 70 324 0.0 0.0 0.00 0.00 0.00 43 1024.0
20260906042801 70 324 0.0 0.0 0.00 0.00 0.00 42 1024.0
20260906042301 71 324 0.0 0.0 0.00 0.00 0.00 42 1024.0
20260906042024 71 324 0.0 0.0 0.00 0.00 0.00 41 1024.0
20260906041301 72 324 0.0 2.0 0.00 0.00 0.00 40 1024.1
20260906041020 72 324 0.0 3.0 0.00 0.00 0.00 41 1024.1
20260906040300 72 324 0.0 5.0 0.00 0.00 0.00 40 1024.0
20260906035800 73 324 2.0 5.0 0.00 0.00 0.00 40 1024.0
20260906035300 73 274 1.0 4.0 0.00 0.00 0.00 39 1024.0
20260906034800 74 274 1.0 4.0 0.00 0.00 0.00 39 1023.8
20260906034301 74 288 3.0 4.0 0.00 0.00 0.00 39 1023.6
20260906034021 75 296 2.0 6.0 0.00 0.00 0.00 38 1023.6
20260906033300 75 298 3.0 10.0 0.00 0.00 0.00 38 1023.5
20260906032800 74 320 5.0 10.0 0.00 0.00 0.00 38 1023.5
20260906032300 74 300 4.0 10.0 0.00 0.00 0.00 38 1023.4
20260906032021 74 307 4.0 10.0 0.00 0.00 0.00 38 1023.2
20260906031300 74 303 4.0 7.0 0.00 0.00 0.00 38 1023.2
20260906031017 75 303 4.0 7.0 0.00 0.00 0.00 38 1023.0
20260906030301 75 305 5.0 9.0 0.00 0.00 0.00 38 1023.0
20260906025801 75 305 5.0 10.0 0.00 0.00 0.00 38 1023.0
20260906025300 75 305 4.0 10.0 0.00 0.00 0.00 39 1023.0
20260906024800 75 313 4.0 9.0 0.00 0.00 0.00 39 1022.9
20260906024300 75 321 4.0 7.0 0.00 0.00 0.00 40 1022.8
20260906023800 75 324 4.0 5.0 0.00 0.00 0.00 41 1022.8
20260906023300 75 326 3.0 6.0 0.00 0.00 0.00 42 1022.8
20260906022801 75 326 4.0 7.0 0.00 0.00 0.00 43 1022.8
20260906022301 75 343 4.0 7.0 0.00 0.00 0.00 44 1022.5
20260906021801 75 0 4.0 5.0 0.00 0.00 0.00 43 1022.7
20260906021300 75 30 1.0 4.0 0.00 0.00 0.00 43 1022.5
20260906020800 75 30 2.0 4.0 0.00 0.00 0.00 43 1022.5
20260906020300 75 30 1.0 2.0 0.00 0.00 0.00 41 1022.4
20260906020021 76 30 0.0 0.0 0.00 0.00 0.00 41 1022.4
20260906015301 76 30 0.0 0.0 0.00 0.00 0.00 40 1022.5
20260906014800 77 30 0.0 0.0 0.00 0.00 0.00 39 1022.3
20260906014300 77 30 0.0 0.0 0.00 0.00 0.00 39 1022.4
20260906013800 78 30 0.0 1.0 0.00 0.00 0.00 38 1022.4
20260906013301 79 30 0.0 1.0 0.00 0.00 0.00 37 1022.3
20260906012800 80 30 0.0 0.0 0.00 0.00 0.00 36 1022.4
20260906012301 81 30 0.0 0.0 0.00 0.00 0.00 35 1022.3
20260906011801 82 30 0.0 0.0 0.00 0.00 0.00 34 1022.3
20260906011301 83 30 0.0 0.0 0.00 0.00 0.00 34 1022.3
20260906011016 83 30 0.0 0.0 0.00 0.00 0.00 34 1022.3
20260906010301 83 30 0.0 1.0 0.00 0.00 0.00 34 1022.2
20260906005800 84 30 0.0 2.0 0.00 0.00 0.00 33 1022.3
20260906005529 84 30 0.0 2.0 0.00 0.00 0.00 33 1022.4
20260906004801 84 30 0.0 1.0 0.00 0.00 0.00 34 1022.2
20260906004300 84 30 0.0 2.0 0.00 0.00 0.00 33 1022.3
20260906003801 84 30 0.0 3.0 0.00 0.00 0.00 33 1022.3
20260906003300 85 30 0.0 4.0 0.00 0.00 0.00 32 1022.3
20260906002800 85 30 1.0 4.0 0.00 0.00 0.00 32 1022.3
20260906002301 86 31 2.0 4.0 0.00 0.00 0.00 32 1022.2
20260906001800 86 31 1.0 3.0 0.00 0.00 0.00 31 1022.3
20260906001301 87 31 1.0 6.0 0.00 0.00 0.00 31 1022.3
20260906000800 88 31 3.0 7.0 0.00 0.00 0.00 30 1022.1
20260906000301 88 25 5.0 7.0 0.00 0.00 0.00 30 1022.2
20260906000022 88 17 3.0 6.0 0.00 0.00 0.00 30 1022.2
20260905235300 88 13 2.0 5.0 0.00 0.00 0.00 30 1022.1
20260905235017 88 13 2.0 6.0 0.00 0.00 0.00 30 1022.2
20260905234300 88 13 3.0 6.0 0.00 0.00 0.00 30 1022.2
20260905233801 88 38 2.0 7.0 0.00 0.00 0.00 31 1022.1
20260905233300 88 24 5.0 7.0 0.00 0.00 0.00 31 1022.2
20260905232800 88 23 3.0 7.0 0.00 0.00 0.00 32 1022.2
20260905232301 87 23 3.0 9.0 0.00 0.00 0.00 33 1022.2
20260905232019 87 32 4.0 9.0 0.00 0.00 0.00 34 1022.2
20260905231525 86 41 2.0 9.0 0.00 0.00 0.00 34 1022.2
20260905230800 86 35 4.0 9.0 0.00 0.00 0.00 34 1022.2
20260905230300 85 347 3.0 7.0 0.00 0.00 0.00 35 1022.3
20260905225759 86 353 4.0 9.0 0.00 0.00 0.00 35 1022.4
20260905225300 86 350 4.0 14.0 0.00 0.00 0.00 34 1022.4
20260905224800 87 0 6.0 14.0 0.00 0.00 0.00 33 1022.3